GW5888 Weather Reports


time (UTC)temp
C
wind
direction
speed
KPH
gust
KPH
rain 1hr
cm
rain 24hr
cm
rain mn
cm
humidity
%
barometer
mb
20260508004018 21 15 6.4 12.9 0.00 0.00 0.00 36 1010.1
20260508003055 21 20 6.4 12.9 0.00 0.00 0.00 37 1010.1
20260508002019 21 23 9.7 14.5 0.00 0.00 0.00 36 1010.1
20260508001018 20 21 8.0 14.5 0.00 0.00 0.00 37 1010.0
20260508000019 20 360 4.8 9.7 0.00 0.00 0.00 36 1010.1
20260507235036 21 335 8.0 14.5 0.00 0.00 0.00 35 1010.0
20260507234036 21 332 12.9 20.9 0.00 0.00 0.00 34 1009.9
20260507233016 21 330 11.3 19.3 0.00 0.05 0.00 34 1010.0
20260507232017 21 326 12.9 20.9 0.00 0.05 0.00 35 1009.9
20260507231020 21 347 11.3 20.9 0.00 0.05 0.00 36 1009.9
20260507230020 21 5 6.4 12.9 0.00 0.05 0.00 38 1010.0
20260507225017 21 12 12.9 20.9 0.00 0.05 0.00 37 1009.8
20260507224017 21 31 8.0 16.1 0.00 0.05 0.00 37 1009.9
20260507223017 21 5 9.7 17.7 0.00 0.05 0.00 37 1010.0
20260507222017 21 337 11.3 20.9 0.00 0.05 0.00 37 1010.1
20260507221018 21 20 9.7 16.1 0.00 0.05 0.00 39 1010.1
20260507220018 20 26 8.0 16.1 0.00 0.05 0.00 40 1010.2
20260507215018 20 5 9.7 14.5 0.00 0.05 0.00 40 1010.3
20260507214021 19 40 9.7 17.7 0.00 0.05 0.00 40 1010.2
20260507213019 19 21 9.7 16.1 0.00 0.05 0.00 41 1010.4
20260507212016 20 31 9.7 19.3 0.00 0.05 0.00 41 1010.5
20260507211019 20 12 9.7 14.5 0.00 0.05 0.00 41 1010.7
20260507210019 19 351 8.0 14.5 0.00 0.05 0.00 43 1010.8
20260507205019 20 18 9.7 16.1 0.00 0.05 0.00 41 1010.8
20260507204016 18 4 6.4 14.5 0.00 0.05 0.00 44 1011.0
20260507203016 18 355 9.7 19.3 0.00 0.05 0.00 43 1010.9
20260507202039 19 11 11.3 16.1 0.00 0.05 0.00 44 1010.9
20260507201017 19 356 8.0 16.1 0.00 0.05 0.00 43 1011.0
20260507200017 20 344 8.0 14.5 0.00 0.05 0.00 42 1011.0
20260507195017 19 329 9.7 16.1 0.00 0.05 0.00 42 1011.2
20260507194017 19 351 6.4 12.9 0.00 0.05 0.00 44 1011.3
20260507193018 19 349 8.0 14.5 0.00 0.05 0.00 43 1011.3
20260507192020 19 251 4.8 14.5 0.00 0.05 0.00 42 1011.2
20260507191018 18 11 8.0 16.1 0.00 0.05 0.00 47 1011.2
20260507190058 18 353 4.8 16.1 0.00 0.05 0.00 47 1011.4
20260507185018 18 326 9.7 22.5 0.00 0.05 0.00 46 1011.3
20260507184038 18 81 6.4 12.9 0.00 0.05 0.00 46 1011.4
20260507183015 18 304 4.8 14.5 0.00 0.05 0.00 46 1011.6
20260507182039 17 286 8.0 14.5 0.00 0.05 0.00 47 1011.7
20260507181019 17 321 6.4 12.9 0.00 0.05 0.00 46 1011.7
20260507180019 17 20 4.8 12.9 0.00 0.05 0.00 49 1011.9
20260507175036 17 345 9.7 16.1 0.00 0.05 0.00 48 1012.1
20260507174036 16 334 11.3 16.1 0.00 0.05 0.00 48 1012.2
20260507173017 16 325 11.3 16.1 0.00 0.05 0.00 47 1012.2
20260507172021 16 326 11.3 19.3 0.00 0.05 0.00 49 1012.3
20260507171017 16 343 8.0 16.1 0.00 0.05 0.00 52 1012.4
20260507170017 17 343 9.7 16.1 0.00 0.05 0.00 50 1012.2
20260507165017 16 339 8.0 14.5 0.00 0.05 0.00 50 1012.1
20260507164017 16 349 9.7 17.7 0.00 0.05 0.00 48 1012.1
20260507163017 16 358 9.7 17.7 0.00 0.05 0.00 48 1012.0
20260507162017 17 17 4.8 11.3 0.00 0.05 0.00 46 1012.1
20260507161018 17 4 6.4 12.9 0.00 0.05 0.00 47 1012.1
20260507160018 16 330 8.0 12.9 0.00 0.05 0.00 48 1012.0
20260507155018 16 356 8.0 14.5 0.00 0.05 0.00 51 1012.1
20260507154038 15 12 8.0 16.1 0.00 0.05 0.00 51 1012.2
20260507153016 15 313 3.2 9.7 0.00 0.05 0.00 56 1012.3
20260507152019 13 9 4.8 8.0 0.00 0.05 0.00 60 1012.4
20260507151019 13 264 3.2 6.4 0.00 0.05 0.00 70 1012.4
20260507150016 12 270 3.2 6.4 0.00 0.05 0.00 70 1012.3
20260507145016 11 177 3.2 8.0 0.00 0.05 0.00 78 1012.3
20260507144020 11 193 3.2 4.8 0.00 0.05 0.00 76 1012.2
20260507143019 10 230 1.6 3.2 0.00 0.05 0.00 78 1012.1
20260507142037 8 320 0.0 1.6 0.00 0.05 0.00 86 1012.0
20260507141037 7 13 1.6 4.8 0.00 0.05 0.00 92 1012.0
20260507140017 6 50 1.6 3.2 0.00 0.05 0.00 97 1011.9
20260507135017 5 288 3.2 4.8 0.00 0.05 0.00 98 1011.9
20260507134020 5 224 3.2 8.0 0.00 0.05 0.00 99 1011.8
20260507133031 5 273 1.6 3.2 0.00 0.05 0.00 99 1011.7
20260507132017 5 357 3.2 3.2 0.00 0.05 0.00 100 1011.6
20260507131037 4 313 1.6 3.2 0.00 0.05 0.00 99 1011.4
20260507130017 4 75 1.6 3.2 0.00 0.05 0.00 99 1011.4
20260507125018 4 84 1.6 3.2 0.00 0.05 0.00 99 1011.5
20260507124018 4 347 3.2 3.2 0.00 0.05 0.00 99 1011.5
20260507123018 4 30 1.6 3.2 0.00 0.05 0.00 99 1011.6
20260507122019 4 272 1.6 3.2 0.00 0.05 0.00 99 1011.5
20260507121039 5 284 1.6 4.8 0.00 0.05 0.00 99 1011.4
20260507120019 5 56 1.6 3.2 0.00 0.05 0.00 99 1011.3
20260507115019 5 64 3.2 4.8 0.00 0.05 0.00 99 1011.3
20260507114019 5 31 1.6 4.8 0.00 0.05 0.00 98 1011.1
20260507113019 5 272 1.6 3.2 0.00 0.05 0.00 98 1011.0
20260507112200 6 41 3.2 4.8 0.00 0.05 0.00 96 1010.9
20260507111020 6 256 1.6 3.2 0.00 0.05 0.00 94 1010.9
20260507110020 6 268 1.6 4.8 0.00 0.05 0.00 93 1010.8
20260507105020 7 316 3.2 4.8 0.00 0.05 0.00 91 1010.7
20260507104020 6 41 1.6 4.8 0.00 0.05 0.00 92 1010.6
20260507103020 7 335 4.8 8.0 0.00 0.05 0.00 87 1010.5
20260507102020 7 77 3.2 8.0 0.00 0.05 0.00 88 1010.4
20260507101018 7 315 4.8 9.7 0.00 0.05 0.00 86 1010.4
20260507100039 7 330 1.6 4.8 0.00 0.05 0.00 88 1010.4
20260507095018 8 323 1.6 4.8 0.00 0.05 0.00 85 1010.3
20260507094019 8 350 1.6 4.8 0.00 0.05 0.00 84 1010.3
20260507093019 8 104 1.6 4.8 0.00 0.05 0.00 83 1010.3
20260507092019 8 339 3.2 9.7 0.00 0.05 0.00 84 1010.3
20260507091019 8 285 1.6 4.8 0.00 0.05 0.00 87 1010.4
20260507090019 8 143 1.6 4.8 0.00 0.05 0.00 86 1010.2
20260507085016 8 251 1.6 3.2 0.00 0.05 0.00 84 1010.3
20260507084040 9 284 1.6 4.8 0.00 0.05 0.00 80 1010.2
20260507083021 10 154 3.2 4.8 0.00 0.05 0.00 79 1010.2
20260507082020 10 292 1.6 6.4 0.00 0.05 0.00 75 1010.3
20260507081037 10 219 1.6 3.2 0.00 0.05 0.00 77 1010.3
20260507080017 11 208 1.6 6.4 0.00 0.05 0.00 76 1010.1
20260507075017 12 326 1.6 4.8 0.00 0.05 0.00 71 1010.0
20260507074018 12 29 0.0 3.2 0.00 0.05 0.00 71 1010.0
20260507073018 13 235 1.6 3.2 0.00 0.05 0.00 65 1010.0
20260507072018 15 286 0.0 3.2 0.00 0.05 0.00 60 1010.0
20260507071018 16 259 3.2 4.8 0.00 0.05 0.00 56 1009.9
20260507070019 16 342 4.8 11.3 0.00 0.05 0.00 51 1010.0
20260507065038 16 337 6.4 14.5 0.00 0.05 0.00 50 1010.0
20260507064019 16 354 6.4 11.3 0.00 0.05 0.00 50 1010.0
20260507063019 16 25 4.8 9.7 0.00 0.05 0.00 49 1009.8
20260507062039 16 133 4.8 11.3 0.00 0.05 0.00 47 1009.7
20260507061019 14 278 8.0 25.7 0.00 0.05 0.00 53 1009.7
20260507060039 12 307 6.4 16.1 0.00 0.05 0.00 70 1009.8
20260507055020 10 124 6.4 30.6 0.00 0.05 0.00 76 1009.8
20260507054057 10 168 1.6 8.0 0.00 0.05 0.00 86 1009.9
20260507053020 10 261 3.2 6.4 0.00 0.05 0.00 86 1009.9
20260507052020 10 338 3.2 4.8 0.00 0.05 0.00 85 1009.9
20260507051040 10 53 1.6 3.2 0.00 0.05 0.00 83 1009.9
20260507050017 11 5 1.6 4.8 0.00 0.05 0.00 80 1009.8
20260507045017 12 319 1.6 6.4 0.00 0.05 0.00 76 1009.9
20260507044041 12 335 1.6 3.2 0.00 0.05 0.00 74 1009.9
20260507043018 12 3 3.2 6.4 0.00 0.05 0.00 74 1009.9
20260507042018 12 330 4.8 11.3 0.00 0.05 0.00 76 1009.9
20260507041018 12 255 3.2 4.8 0.00 0.05 0.00 76 1009.8
20260507040018 12 305 1.6 4.8 0.00 0.05 0.00 72 1009.7
20260507035018 12 296 4.8 8.0 0.00 0.05 0.00 75 1009.7
20260507034019 12 1 3.2 4.8 0.00 0.05 0.00 72 1009.6
20260507033016 12 323 1.6 6.4 0.00 0.05 0.00 75 1009.6
20260507032018 12 287 1.6 3.2 0.00 0.05 0.00 76 1009.4
20260507031019 13 355 3.2 8.0 0.00 0.05 0.00 73 1009.4
20260507030019 13 260 1.6 4.8 0.00 0.05 0.00 71 1009.3
20260507025016 13 350 3.2 4.8 0.00 0.05 0.00 68 1009.3
20260507024100 15 257 1.6 4.8 0.00 0.05 0.00 69 1009.4
20260507023040 15 183 3.2 4.8 0.00 0.05 0.00 60 1009.4
20260507022019 16 235 1.6 4.8 0.00 0.05 0.00 60 1009.6
20260507021020 16 230 3.2 4.8 0.00 0.05 0.00 57 1009.6
20260507020018 17 305 0.0 3.2 0.00 0.05 0.00 53 1009.5
20260507015038 17 323 3.2 6.4 0.00 0.05 0.00 52 1009.5
20260507014020 16 334 8.0 12.9 0.00 0.05 0.00 55 1009.6
20260507013021 17 345 8.0 12.9 0.00 0.05 0.00 63 1009.7
20260507012018 17 1 1.6 3.2 0.00 0.05 0.00 56 1009.4
20260507011018 17 83 1.6 3.2 0.00 0.05 0.00 57 1009.4
20260507010018 17 279 4.8 9.7 0.00 0.05 0.00 59 1009.6
20260507005019 17 331 3.2 6.4 0.00 0.05 0.00 60 1009.5